Location: Emblem
(62.4273°N, 6.4710°E)
Time: 15:01:50
(UTC+02:00)

Transit 4A - Pass Details

Date: 02 February 2023
Orbit: 867 x 976 km, 66.8° (Epoch: 31 March)

Event Time Altitude Azimuth Distance (km) Brightness Sun altitude
Rises 22:07:56 0° 264° (W) 3,457 11.4 -36.5°
Reaches altitude 10° 22:10:26 10° 268° (W) 2,523 10.6 -36.7°
Enters shadow 22:13:31 32° 282° (WNW) 1,472 9.2 -37.0°
